Location: Kraków
(50.0647°N, 19.9450°E)
Time: 14:16:49
(UTC+02:00)

Envisat - Pass Details

Date: 06 April 2020
Orbit: 764 x 766 km, 98.1° (Epoch: 02 June)

Event Time Altitude Azimuth Distance (km) Brightness Sun altitude
Rises 19:56:17 0° 223° (SW) 3,224 6.6 -6.3°
Reaches altitude 10° 20:00:15 10° 254° (WSW) 2,306 6.4 -6.9°
Maximum altitude 20:02:06 12° 276° (W) 2,180 6.8 -7.2°
Drops below altitude 10° 20:03:57 10° 297° (WNW) 2,313 7.2 -7.5°
Sets 20:07:58 0° 329° (NNW) 3,247 7.2 -8.1°
